Location: Balaclava NSW 2575, Australia
(34.4510°S, 150.4953°E)
Time: 18:53:11
(UTC+10:00)

Vanguard 2 - Pass Details

Date: 16 June 2021
Orbit: 552 x 2937 km, 32.9° (Epoch: 24 July)

Event Time Altitude Azimuth Distance (km) Brightness Sun altitude
Rises 11:45:50 0° 258° (WSW) 5,688 11.8 32.1°
Reaches altitude 10° 11:49:12 10° 261° (W) 4,941 11.6 32.2°
Maximum altitude 12:04:13 61° 335° (NNW) 3,133 11.8 32.2°
Drops below altitude 10° 12:21:36 10° 50° (NE) 5,613 12.5 31.9°
Sets 12:25:45 0° 53° (NE) 6,471 12.6 31.8°
